カタログに戻る

STARLINK-30257

運用中通信VLEO
NORAD 57526·PAYLOAD·🇺🇸 United States

打ち上げ Aug 8, 2023 から Vandenberg Space Force Base

Loading…

次のパス (今後24時間)

TLE

最新Source: CelesTrak SupGP

元期: Sep 14, 2026, 20:51 UTC

1 57526C 23115F   26257.86923611  .00035683  00000+0  12926-2 0  2578
2 57526  43.0013  13.3299 0001504 271.9735  56.6849 15.27556231    15

AllMySatでSTARLINK-30257をリアルタイム追跡

Download on the App Store